Poughkeepsie, NY

1:49 PM EDT on July 21, 2017 (GMT -0400)
Dutchess County

Weather History for KPOU - October, 2011

Change the Weather History Date:

Monday, October 17, 2011

  Actual Average Record
Temperature  
Mean Temperature 56 °F 50 °F  
Max Temperature 67 °F 63 °F 82 °F (1956)
Min Temperature 44 °F 38 °F 25 °F (1978)
Degree Days  
Heating Degree Days 9 15  
Month to date heating degree days 118 201  
Since 1 July heating degree days 178 341  
Cooling Degree Days 0 0  
Month to date cooling degree days 0 0  
Year to date cooling degree days 908 668  
Growing Degree Days 6 (Base 50)    
Moisture  
Dew Point 39 °F    
Average Humidity 53    
Maximum Humidity 89    
Minimum Humidity 26    
Precipitation  
Precipitation T in 0.14 in 0.84 in (1977)
Month to date precipitation 1.73 2.54  
Year to date precipitation 49.49 37.60  
Sea Level Pressure  
Sea Level Pressure 29.69 in    
Wind  
Wind Speed 6 mph (SW)    
Max Wind Speed 21 mph    
Max Gust Speed 28 mph    
Visibility 10 miles    
Events Rain    
T = Trace of Precipitation, MM = Missing Value Source: NWS Daily Summary

Daily Weather History Graph

Daily Weather History Graph

Search for Another Location

Airport or City:

Trip Planner

Search our weather history database for the weather conditions in past years. The results will help you decide how hot, cold, wet, or windy it might be!

Date:

Astronomy

Oct. 17, 2011 Rise Set
Actual Time 7:09 AM EDT 6:11 PM EDT
Civil Twilight 6:41 AM EDT 6:39 PM EDT
Nautical Twilight 6:09 AM EDT 7:11 PM EDT
Astronomical Twilight 5:37 AM EDT 7:43 PM EDT
Moon 9:46 PM EDT (10/17) 12:17 PM EDT (10/17)
Length of Visible Light 11h 58m
Length of Day
11h 02m
Waning Gibbous, 74% of the Moon is Illuminated
Oct 17
Waning Gibbous
Oct 19
Last Quarter
Oct 26
New
Nov 2
First Quarter
Nov 10
Full

Hourly Weather History & Observations

Time (EDT) Temp. Dew Point Humidity Pressure Visibility Wind Dir Wind Speed Gust Speed Precip Events Conditions
12:53 AM 59.0 °F 46.9 °F 64% 29.64 in 10.0 mi West 4.6 mph - 0.00 in   Mostly Cloudy
1:53 AM 59.0 °F 46.0 °F 62% 29.63 in 10.0 mi SSE 4.6 mph - 0.00 in Rain Light Rain
2:53 AM 57.9 °F 46.9 °F 67% 29.62 in 10.0 mi SSW 5.8 mph - 0.00 in   Overcast
3:53 AM 57.0 °F 48.0 °F 72% 29.63 in 10.0 mi Calm Calm - N/A   Mostly Cloudy
4:53 AM 51.1 °F 46.9 °F 86% 29.65 in 10.0 mi Calm Calm - N/A   Clear
6:53 AM 52.0 °F 44.1 °F 74% 29.70 in 10.0 mi West 4.6 mph - N/A   Mostly Cloudy
7:53 AM 53.1 °F 42.1 °F 66% 29.72 in 10.0 mi SSW 5.8 mph - N/A   Clear
8:53 AM 55.0 °F 43.0 °F 64% 29.74 in 10.0 mi SW 8.1 mph - N/A   Clear
9:53 AM 57.9 °F 39.9 °F 51% 29.74 in 10.0 mi SW 15.0 mph 20.7 mph N/A   Clear
10:53 AM 60.8 °F 37.4 °F 42% 29.75 in 10.0 mi West 10.4 mph 21.9 mph N/A   Partly Cloudy
11:53 AM 60.1 °F 37.9 °F 44% 29.73 in 10.0 mi SW 15.0 mph 23.0 mph N/A   Scattered Clouds
12:53 PM 63.0 °F 37.0 °F 38% 29.70 in 10.0 mi West 13.8 mph 21.9 mph N/A   Scattered Clouds
1:53 PM 64.9 °F 33.1 °F 31% 29.68 in 10.0 mi WSW 17.3 mph 21.9 mph N/A   Clear
2:53 PM 66.0 °F 30.0 °F 26% 29.66 in 10.0 mi WSW 12.7 mph 26.5 mph N/A   Clear
3:53 PM 66.0 °F 32.0 °F 28% 29.65 in 10.0 mi SW 8.1 mph - N/A   Clear
4:53 PM 66.0 °F 33.1 °F 29% 29.65 in 10.0 mi WSW 8.1 mph - N/A   Clear
5:53 PM 64.0 °F 30.9 °F 29% 29.67 in 10.0 mi SW 5.8 mph - N/A   Clear
6:53 PM 55.9 °F 39.0 °F 53% 29.68 in 10.0 mi Calm Calm - N/A   Clear
7:53 PM 57.2 °F 37.4 °F 48% 29.71 in 10.0 mi Calm Calm - N/A   Clear
8:53 PM 57.0 °F 36.0 °F 45% 29.71 in 10.0 mi SSE 3.5 mph - N/A   Clear
9:53 PM 54.0 °F 37.0 °F 53% 29.73 in 10.0 mi Calm Calm - N/A   Clear
10:53 PM 46.9 °F 39.9 °F 77% 29.75 in 10.0 mi Calm Calm - N/A   Clear
11:53 PM 46.0 °F 39.0 °F 76% 29.76 in 10.0 mi Calm Calm - N/A   Clear